Flag for Turkey Weather past 2 weeks in Bursa, Turkey

Now
75 °F

Partly sunny.


Feels Like: 77 °F
Forecast: 51 / 58 °F
Wind: 30 mph from Southwest

Location: Bursa

Current Time: Feb 1, 2015 at 3:41:39 PM

Latest Report: Feb 1, 2015 at 3:00 PM


Visibility: 6 mi

Pressure: 29.38 "Hg

Humidity: 32%

Dew point: 43 °F

Location of BursaLocation

Historic Weather in Bursa — Graph

°F

Bursa temperature yesterday

Maximum temperature yesterday: 66 °F (at 4:00 PM)
Minimum temperature yesterday: 57 °F (at 6:00 AM)
Average temperature yesterday: 62 °F

Past Weeks' High & Low Weather Summary

 TemperatureHumidityPressure
High75 °F (Feb 1, 2:00 PM)100% (Jan 28, 8:00 PM)30.42 "Hg (Jan 28, 8:00 PM)
Low36 °F (Jan 26, 8:00 AM)32% (Feb 1, 2:00 PM)29.32 "Hg (Feb 1, 6:00 AM)
Average51 °F68%29.94 "Hg
* Reported Jan 17 2:00 PM — Feb 1 2:00 PM, Bursa, Weather by CustomWeather, © 2014

Note: Actual official high and low records may vary slightly from our data, if they occured in-between our weather recording intervals... More about our weather records

Advertising

Bursa weather history for previous 24 hours

 ConditionsComfort  
Time TempWeatherWind HumidityBarometerVisibility
2:00 PM
Feb 1
75 °FPartly sunny.25 mph32%29.38 "Hg6 mi
1:00 PM73 °FPartly sunny.26 mph34%29.38 "Hg6 mi
12:00 PM72 °FPartly sunny.33 mph33%29.35 "Hg9 mi
11:00 AM71 °FPartly sunny.29 mph37%29.38 "Hg12 mi
10:00 AM70 °FPartly sunny.36 mph39%29.35 "Hg12 mi
9:00 AM68 °FPartly sunny.37 mph39%29.38 "Hg12 mi
8:00 AM66 °FScattered clouds.29 mph39%29.38 "Hg12 mi
7:00 AM66 °FPassing clouds.33 mph37%29.35 "Hg12 mi
6:00 AM67 °FPassing clouds.35 mph36%29.32 "Hg12 mi
5:00 AM66 °FPassing clouds.15 mph37%29.38 "Hg12 mi
4:00 AM66 °FPassing clouds.25 mph37%29.41 "Hg12 mi
3:00 AM66 °FPassing clouds.30 mph38%29.41 "Hg12 mi
2:00 AM66 °FPassing clouds.33 mph37%29.38 "Hg12 mi
1:00 AM66 °FPassing clouds.31 mph37%29.41 "Hg12 mi
12:00 AM65 °FPassing clouds.30 mph36%29.41 "Hg12 mi
11:00 PM
Jan 31
65 °FPassing clouds.18 mph37%29.44 "Hg12 mi
10:00 PM65 °FPassing clouds.28 mph38%29.44 "Hg12 mi
9:00 PM65 °FPassing clouds.29 mph37%29.41 "Hg12 mi
8:00 PM65 °FPassing clouds.22 mph38%29.44 "Hg12 mi
7:00 PM64 °FPassing clouds.18 mph41%29.47 "Hg12 mi
6:00 PM64 °FPassing clouds.23 mph43%29.47 "Hg12 mi
5:00 PM65 °FPartly sunny.16 mph43%29.50 "Hg12 mi
4:00 PM66 °FScattered clouds.21 mph40%29.50 "Hg12 mi
3:00 PM65 °FPartly sunny.17 mph41%29.44 "Hg12 mi
Weather by CustomWeather, © 2014

See weather overviewHow to use our weather pages